Grand Canyon, AZ

12:15 PM MST on April 30, 2017 (GMT -0700)
Grand Canyon National Park

Weather History for KGCN - April, 2014

Change the Weather History Date:

Friday, April 4, 2014

  Actual Average Record
Temperature  
Mean Temperature 36 °F -  
Max Temperature 52 °F 51 °F 69 °F (2002)
Min Temperature 19 °F 22 °F 10 °F (2003)
Degree Days  
Heating Degree Days 30    
Moisture  
Dew Point 12 °F    
Average Humidity 46    
Maximum Humidity 89    
Minimum Humidity 11    
Precipitation  
Precipitation 0.00 in - - ()
Sea Level Pressure  
Sea Level Pressure 29.96 in    
Wind  
Wind Speed 3 mph (SW)    
Max Wind Speed 15 mph    
Max Gust Speed 34 mph    
Visibility 10 miles    
Events      
Averages and records for this station are not official NWS values.
T = Trace of Precipitation, MM = Missing Value Source: NWS Daily Summary

Daily Weather History Graph

Daily Weather History Graph

Search for Another Location

Airport or City:

Trip Planner

Search our weather history database for the weather conditions in past years. The results will help you decide how hot, cold, wet, or windy it might be!

Date:

Astronomy

Apr. 04, 2014 Rise Set
Actual Time 6:10 AM MST 6:53 PM MST
Civil Twilight 5:44 AM MST 7:18 PM MST
Nautical Twilight 5:14 AM MST 7:49 PM MST
Astronomical Twilight 4:42 AM MST 8:21 PM MST
Moon 9:37 AM MST (4/4) No Moon Set
Length of Visible Light 13h 34m
Length of Day
12h 42m
Waxing Crescent, 26% of the Moon is Illuminated
Apr 4
Waxing Crescent
Apr 7
First Quarter
Apr 15
Full
Apr 22
Last Quarter
Apr 28
New

Hourly Weather History & Observations

Time (MST) Temp. Windchill Dew Point Humidity Pressure Visibility Wind Dir Wind Speed Gust Speed Precip Events Conditions
12:54 AM 21.0 °F - 17.1 °F 85% 30.07 in 10.0 mi Calm Calm - N/A   Clear
1:54 AM 21.0 °F - 17.1 °F 85% 30.06 in 10.0 mi Calm Calm - N/A   Clear
2:54 AM 21.0 °F - 17.1 °F 85% 30.04 in 10.0 mi Calm Calm - N/A   Clear
3:54 AM 19.9 °F - 16.0 °F 85% 30.03 in 10.0 mi Calm Calm - N/A   Clear
4:54 AM 19.9 °F - 16.0 °F 85% 30.03 in 10.0 mi Calm Calm - N/A   Clear
5:54 AM 19.9 °F - 17.1 °F 89% 30.03 in 10.0 mi Calm Calm - N/A   Clear
6:54 AM 23.0 °F - 19.0 °F 85% 30.07 in 10.0 mi Calm Calm - N/A   Clear
7:54 AM 28.9 °F - 21.9 °F 75% 30.07 in 10.0 mi Calm Calm - N/A   Partly Cloudy
8:54 AM 39.9 °F 37.8 °F 21.9 °F 49% 30.04 in 10.0 mi SE 3.5 mph - N/A   Scattered Clouds
9:54 AM 45.0 °F 42.6 °F 17.1 °F 33% 30.01 in 10.0 mi Variable 4.6 mph - N/A   Mostly Cloudy
10:54 AM 46.9 °F - 14.0 °F 27% 30.00 in 10.0 mi Variable 3.5 mph - N/A   Partly Cloudy
11:54 AM 50.0 °F - 16.0 °F 26% 29.96 in 10.0 mi Variable 6.9 mph - N/A   Partly Cloudy
12:54 PM 52.0 °F - 12.9 °F 21% 29.94 in 10.0 mi SSW 15.0 mph 18.4 mph N/A   Partly Cloudy
1:54 PM 52.0 °F - 8.1 °F 17% 29.92 in 10.0 mi WSW 9.2 mph 20.7 mph N/A   Clear
2:54 PM 52.0 °F - -0.9 °F 11% 29.90 in 10.0 mi SSW 11.5 mph 24.2 mph N/A   Clear
3:54 PM 50.0 °F - 1.9 °F 14% 29.90 in 10.0 mi WSW 10.4 mph 34.5 mph N/A   Overcast
4:54 PM 51.1 °F - 9.0 °F 18% 29.87 in 10.0 mi SW 11.5 mph - N/A   Mostly Cloudy
5:54 PM 50.0 °F - -0.9 °F 12% 29.87 in 10.0 mi SW 15.0 mph 20.7 mph N/A   Clear
6:54 PM 46.9 °F - -4.0 °F 12% 29.87 in 10.0 mi WSW 8.1 mph - N/A   Scattered Clouds
7:54 PM 42.1 °F 40.2 °F -0.0 °F 17% 29.88 in 10.0 mi WSW 3.5 mph - N/A   Scattered Clouds
8:54 PM 32.0 °F - 12.0 °F 44% 29.89 in 10.0 mi Calm Calm - N/A   Scattered Clouds
9:54 PM 32.0 °F - 12.0 °F 44% 29.87 in 10.0 mi Calm Calm - N/A   Clear
10:54 PM 32.0 °F 27.5 °F 12.0 °F 44% 29.85 in 10.0 mi NE 4.6 mph - N/A   Clear
11:54 PM 28.9 °F 25.2 °F 12.9 °F 51% 29.83 in 10.0 mi ENE 3.5 mph - N/A   Clear